Time,TemperatureF,DewpointF,PressureIn,WindDirection,WindDirectionDegrees,WindSpeedMPH,WindSpeedGustMPH,Humidity,HourlyPrecipIn,Conditions,Clouds,dailyrainin,SoftwareType,DateUTC
2013-08-13 00:01:00,62.6,59.0,29.96,WSW,245,0.0,0.0,88,0.00,NA,NA,-99.99,VWS Version 10.39,2013-08-13 07:01:00,
2013-08-13 00:06:00,62.7,59.1,29.96,WSW,245,0.0,0.0,88,0.00,NA,NA,-99.99,VWS Version 10.39,2013-08-13 07:06:00,
2013-08-13 00:11:00,62.6,59.0,29.96,WSW,245,0.0,0.0,88,0.00,NA,NA,-99.99,VWS Version 10.39,2013-08-13 07:11:00,
2013-08-13 00:16:00,62.6,59.0,29.96,WSW,245,0.0,0.0,88,0.00,NA,NA,-99.99,VWS Version 10.39,2013-08-13 07:16:00,
2013-08-13 00:21:00,62.6,59.0,29.96,WSW,245,0.0,0.0,88,0.00,NA,NA,-99.99,VWS Version 10.39,2013-08-13 07:21:00,
2013-08-13 00:26:00,62.6,59.0,29.96,WSW,245,0.0,0.0,88,0.00,NA,NA,-99.99,VWS Version 10.39,2013-08-13 07:26:00,
2013-08-13 00:31:00,62.5,58.9,29.96,WSW,245,0.0,0.0,88,0.00,NA,NA,-99.99,VWS Version 10.39,2013-08-13 07:31:00,
2013-08-13 00:36:00,62.5,58.6,29.96,WSW,245,0.0,0.0,87,0.00,NA,NA,-99.99,VWS Version 10.39,2013-08-13 07:36:00,
2013-08-13 00:41:00,62.5,58.6,29.96,WSW,245,0.0,0.0,87,0.00,NA,NA,-99.99,VWS Version 10.39,2013-08-13 07:41:00,
2013-08-13 00:46:00,62.5,58.6,29.95,WSW,245,0.0,0.0,87,0.00,NA,NA,-99.99,VWS Version 10.39,2013-08-13 07:46:00,
2013-08-13 00:51:00,62.5,58.6,29.95,WSW,245,0.0,0.0,87,0.00,NA,NA,-99.99,VWS Version 10.39,2013-08-13 07:51:00,
2013-08-13 00:56:00,62.5,58.6,29.95,WSW,245,0.0,0.0,87,0.00,NA,NA,-99.99,VWS Version 10.39,2013-08-13 07:56:00,
2013-08-13 01:01:00,62.6,58.7,29.95,WSW,245,0.0,0.0,87,0.00,NA,NA,-99.99,VWS Version 10.39,2013-08-13 08:01:00,
2013-08-13 01:06:00,62.5,58.3,29.95,WSW,245,0.0,0.0,86,0.00,NA,NA,-99.99,VWS Version 10.39,2013-08-13 08:06:00,
2013-08-13 01:11:00,62.4,58.2,29.95,WSW,245,0.0,0.0,86,0.00,NA,NA,-99.99,VWS Version 10.39,2013-08-13 08:11:00,
2013-08-13 01:16:00,62.3,58.1,29.95,WSW,245,0.0,0.0,86,0.00,NA,NA,-99.99,VWS Version 10.39,2013-08-13 08:16:00,
2013-08-13 01:21:00,62.3,58.1,29.95,WSW,245,0.0,0.0,86,0.00,NA,NA,-99.99,VWS Version 10.39,2013-08-13 08:21:00,
2013-08-13 01:26:00,62.4,58.2,29.95,WSW,245,0.0,0.0,86,0.00,NA,NA,-99.99,VWS Version 10.39,2013-08-13 08:26:00,
2013-08-13 01:31:00,62.4,58.2,29.95,WSW,244,0.0,0.0,86,0.00,NA,NA,-99.99,VWS Version 10.39,2013-08-13 08:31:00,
2013-08-13 01:36:00,62.4,57.8,29.95,WSW,244,0.0,0.0,85,0.00,NA,NA,-99.99,VWS Version 10.39,2013-08-13 08:36:00,
2013-08-13 01:41:00,62.4,57.8,29.95,WSW,244,0.0,0.0,85,0.00,NA,NA,-99.99,VWS Version 10.39,2013-08-13 08:41:00,
2013-08-13 01:46:00,62.3,57.7,29.95,WSW,244,0.0,0.0,85,0.00,NA,NA,-99.99,VWS Version 10.39,2013-08-13 08:46:00,
2013-08-13 01:51:00,62.3,57.7,29.95,WSW,244,0.0,0.0,85,0.00,NA,NA,-99.99,VWS Version 10.39,2013-08-13 08:51:00,
2013-08-13 01:56:00,62.4,57.5,29.95,WSW,244,0.0,0.0,84,0.00,NA,NA,-99.99,VWS Version 10.39,2013-08-13 08:56:00,
2013-08-13 02:01:00,62.3,57.4,29.95,WSW,244,0.0,0.0,84,0.00,NA,NA,-99.99,VWS Version 10.39,2013-08-13 09:01:00,
2013-08-13 02:11:00,62.3,57.1,29.94,SW,225,0.0,0.0,83,0.00,NA,NA,-99.99,VWS Version 10.39,2013-08-13 09:11:00,
2013-08-13 02:16:00,62.3,57.1,29.95,SW,225,0.0,0.0,83,0.00,NA,NA,-99.99,VWS Version 10.39,2013-08-13 09:16:00,
2013-08-13 02:21:00,62.3,57.1,29.95,SW,225,0.0,0.0,83,0.00,NA,NA,-99.99,VWS Version 10.39,2013-08-13 09:21:00,
2013-08-13 02:26:00,62.3,56.7,29.94,SW,225,0.0,0.0,82,0.00,NA,NA,-99.99,VWS Version 10.39,2013-08-13 09:26:00,
2013-08-13 02:31:00,62.3,56.7,29.94,SW,225,0.0,0.0,82,0.00,NA,NA,-99.99,VWS Version 10.39,2013-08-13 09:31:00,
2013-08-13 02:36:00,62.3,56.7,29.94,SW,225,0.0,0.0,82,0.00,NA,NA,-99.99,VWS Version 10.39,2013-08-13 09:36:00,
2013-08-13 02:41:00,62.3,56.4,29.94,SW,225,0.0,0.0,81,0.00,NA,NA,-99.99,VWS Version 10.39,2013-08-13 09:41:00,
2013-08-13 02:46:00,62.3,56.4,29.94,SW,225,0.0,0.0,81,0.00,NA,NA,-99.99,VWS Version 10.39,2013-08-13 09:46:00,
2013-08-13 02:51:00,62.3,56.4,29.94,SW,225,0.0,0.0,81,0.00,NA,NA,-99.99,VWS Version 10.39,2013-08-13 09:51:00,
2013-08-13 02:56:00,62.3,56.1,29.94,SW,225,0.0,0.0,80,0.00,NA,NA,-99.99,VWS Version 10.39,2013-08-13 09:56:00,
2013-08-13 03:01:00,62.4,56.2,29.94,SW,225,0.0,0.0,80,0.00,NA,NA,-99.99,VWS Version 10.39,2013-08-13 10:01:00,
2013-08-13 03:06:00,62.4,55.8,29.94,SW,225,0.0,0.0,79,0.00,NA,NA,-99.99,VWS Version 10.39,2013-08-13 10:06:00,
2013-08-13 03:11:00,62.4,55.8,29.94,SW,225,0.0,0.0,79,0.00,NA,NA,-99.99,VWS Version 10.39,2013-08-13 10:11:00,
2013-08-13 03:16:00,62.3,55.4,29.94,SW,225,0.0,0.0,78,0.00,NA,NA,-99.99,VWS Version 10.39,2013-08-13 10:16:00,
2013-08-13 03:21:00,62.3,55.4,29.94,SW,223,0.0,0.0,78,0.00,NA,NA,-99.99,VWS Version 10.39,2013-08-13 10:21:00,
2013-08-13 03:26:00,62.3,55.0,29.94,SW,223,0.0,0.0,77,0.00,NA,NA,-99.99,VWS Version 10.39,2013-08-13 10:26:00,
2013-08-13 03:31:00,62.3,55.0,29.94,SW,223,0.0,0.0,77,0.00,NA,NA,-99.99,VWS Version 10.39,2013-08-13 10:31:00,
2013-08-13 03:36:00,62.2,54.9,29.94,SW,224,0.0,0.0,77,0.00,NA,NA,-99.99,VWS Version 10.39,2013-08-13 10:36:00,
2013-08-13 03:41:00,62.2,54.9,29.94,SW,224,0.0,0.0,77,0.00,NA,NA,-99.99,VWS Version 10.39,2013-08-13 10:41:00,
2013-08-13 03:46:00,62.2,54.5,29.94,SW,223,0.0,0.0,76,0.00,NA,NA,-99.99,VWS Version 10.39,2013-08-13 10:46:00,
2013-08-13 03:51:00,62.1,54.5,29.94,SW,223,0.0,0.0,76,0.00,NA,NA,-99.99,VWS Version 10.39,2013-08-13 10:51:00,
2013-08-13 03:56:00,62.1,54.1,29.94,SW,223,0.0,0.0,75,0.00,NA,NA,-99.99,VWS Version 10.39,2013-08-13 10:56:00,
2013-08-13 04:01:00,62.0,54.0,29.94,SW,223,0.0,0.0,75,0.00,NA,NA,-99.99,VWS Version 10.39,2013-08-13 11:01:00,
2013-08-13 04:06:00,61.9,53.9,29.94,SW,223,0.0,0.0,75,0.00,NA,NA,-99.99,VWS Version 10.39,2013-08-13 11:06:00,
2013-08-13 04:11:00,61.9,53.5,29.94,SW,223,0.0,0.0,74,0.00,NA,NA,-99.99,VWS Version 10.39,2013-08-13 11:11:00,
2013-08-13 04:16:00,61.8,53.4,29.94,SW,223,0.0,0.0,74,0.00,NA,NA,-99.99,VWS Version 10.39,2013-08-13 11:16:00,
2013-08-13 04:21:00,61.8,53.4,29.94,SW,223,0.0,0.0,74,0.00,NA,NA,-99.99,VWS Version 10.39,2013-08-13 11:21:00,
2013-08-13 04:26:00,61.8,53.1,29.94,SW,224,0.0,0.0,73,0.00,NA,NA,-99.99,VWS Version 10.39,2013-08-13 11:26:00,
2013-08-13 04:31:00,61.7,53.0,29.94,SW,227,0.0,0.0,73,0.00,NA,NA,-99.99,VWS Version 10.39,2013-08-13 11:31:00,
2013-08-13 04:36:00,61.6,52.9,29.94,SW,227,0.0,0.0,73,0.00,NA,NA,-99.99,VWS Version 10.39,2013-08-13 11:36:00,
2013-08-13 04:41:00,61.6,52.5,29.94,SW,227,0.0,0.0,72,0.00,NA,NA,-99.99,VWS Version 10.39,2013-08-13 11:41:00,
2013-08-13 04:46:00,61.6,52.5,29.94,SW,227,0.0,0.0,72,0.00,NA,NA,-99.99,VWS Version 10.39,2013-08-13 11:46:00,
2013-08-13 04:51:00,61.6,52.1,29.94,SW,227,0.0,0.0,71,0.00,NA,NA,-99.99,VWS Version 10.39,2013-08-13 11:51:00,
2013-08-13 04:56:00,61.6,52.1,29.94,SW,227,0.0,0.0,71,0.00,NA,NA,-99.99,VWS Version 10.39,2013-08-13 11:56:00,
2013-08-13 05:11:00,61.6,51.3,29.94,SW,227,0.0,0.0,69,0.00,NA,NA,-99.99,VWS Version 10.39,2013-08-13 12:11:00,
2013-08-13 05:16:00,61.6,51.3,29.94,SW,227,0.0,0.0,69,0.00,NA,NA,-99.99,VWS Version 10.39,2013-08-13 12:16:00,
2013-08-13 05:21:00,61.6,51.3,29.94,SW,227,0.0,0.0,69,0.00,NA,NA,-99.99,VWS Version 10.39,2013-08-13 12:21:00,
2013-08-13 05:26:00,61.6,51.0,29.94,SW,227,0.0,0.0,68,0.00,NA,NA,-99.99,VWS Version 10.39,2013-08-13 12:26:00,
2013-08-13 05:31:00,61.6,51.0,29.94,SW,227,0.0,0.0,68,0.00,NA,NA,-99.99,VWS Version 10.39,2013-08-13 12:31:00,
2013-08-13 05:36:00,61.6,50.5,29.94,SW,227,0.0,0.0,67,0.00,NA,NA,-99.99,VWS Version 10.39,2013-08-13 12:36:00,
2013-08-13 05:41:00,61.6,50.5,29.94,SW,227,0.0,0.0,67,0.00,NA,NA,-99.99,VWS Version 10.39,2013-08-13 12:41:00,
2013-08-13 05:46:00,61.6,50.1,29.94,SW,227,0.0,0.0,66,0.00,NA,NA,-99.99,VWS Version 10.39,2013-08-13 12:46:00,
2013-08-13 05:51:00,61.6,50.1,29.94,SW,227,0.0,0.0,66,0.00,NA,NA,-99.99,VWS Version 10.39,2013-08-13 12:51:00,
2013-08-13 05:56:00,61.6,50.1,29.95,SW,227,0.0,0.0,66,0.00,NA,NA,-99.99,VWS Version 10.39,2013-08-13 12:56:00,
2013-08-13 06:01:00,61.5,49.6,29.95,SW,227,0.0,0.0,65,0.00,NA,NA,-99.99,VWS Version 10.39,2013-08-13 13:01:00,
2013-08-13 06:06:00,61.5,49.6,29.95,SW,227,0.0,0.0,65,0.00,NA,NA,-99.99,VWS Version 10.39,2013-08-13 13:06:00,
2013-08-13 06:11:00,61.5,49.2,29.95,SW,227,0.0,0.0,64,0.00,NA,NA,-99.99,VWS Version 10.39,2013-08-13 13:11:00,
2013-08-13 06:16:00,61.5,49.2,29.95,SW,227,0.0,0.0,64,0.00,NA,NA,-99.99,VWS Version 10.39,2013-08-13 13:16:00,
2013-08-13 06:21:00,61.5,48.8,29.95,SW,227,0.0,0.0,63,0.00,NA,NA,-99.99,VWS Version 10.39,2013-08-13 13:21:00,
2013-08-13 06:26:00,61.5,48.8,29.95,SW,227,0.0,0.0,63,0.00,NA,NA,-99.99,VWS Version 10.39,2013-08-13 13:26:00,
2013-08-13 06:31:00,61.4,48.3,29.95,SW,227,0.0,0.0,62,0.00,NA,NA,-99.99,VWS Version 10.39,2013-08-13 13:31:00,
2013-08-13 06:36:00,61.4,48.3,29.95,SW,227,0.0,0.0,62,0.00,NA,NA,-99.99,VWS Version 10.39,2013-08-13 13:36:00,
2013-08-13 06:41:00,61.4,47.8,29.95,SW,227,0.0,0.0,61,0.00,NA,NA,-99.99,VWS Version 10.39,2013-08-13 13:41:00,
2013-08-13 06:46:00,61.4,47.8,29.95,SW,227,0.0,0.0,61,0.00,NA,NA,-99.99,VWS Version 10.39,2013-08-13 13:46:00,
2013-08-13 06:51:00,61.4,47.8,29.95,SW,227,0.0,0.0,61,0.00,NA,NA,-99.99,VWS Version 10.39,2013-08-13 13:51:00,
2013-08-13 06:56:00,61.4,47.4,29.95,SW,227,0.0,0.0,60,0.00,NA,NA,-99.99,VWS Version 10.39,2013-08-13 13:56:00,
2013-08-13 07:01:00,61.5,47.5,29.96,SW,227,0.0,0.0,60,0.00,NA,NA,-99.99,VWS Version 10.39,2013-08-13 14:01:00,
2013-08-13 07:06:00,61.5,47.1,29.96,SW,227,0.0,0.0,59,0.00,NA,NA,-99.99,VWS Version 10.39,2013-08-13 14:06:00,
2013-08-13 07:11:00,61.5,47.1,29.96,SW,227,0.0,0.0,59,0.00,NA,NA,-99.99,VWS Version 10.39,2013-08-13 14:11:00,
2013-08-13 07:16:00,61.5,46.6,29.96,SW,227,0.0,0.0,58,0.00,NA,NA,-99.99,VWS Version 10.39,2013-08-13 14:16:00,
2013-08-13 07:21:00,61.5,46.6,29.96,SW,219,0.0,0.0,58,0.00,NA,NA,-99.99,VWS Version 10.39,2013-08-13 14:21:00,
2013-08-13 07:26:00,61.4,46.5,29.96,SW,218,0.0,0.0,58,0.00,NA,NA,-99.99,VWS Version 10.39,2013-08-13 14:26:00,
2013-08-13 07:31:00,61.5,46.1,29.97,SW,219,0.0,0.0,57,0.00,NA,NA,-99.99,VWS Version 10.39,2013-08-13 14:31:00,
2013-08-13 07:36:00,61.5,46.1,29.97,SW,219,0.0,0.0,57,0.00,NA,NA,-99.99,VWS Version 10.39,2013-08-13 14:36:00,
2013-08-13 07:41:00,61.5,46.1,29.97,SW,219,0.0,0.0,57,0.00,NA,NA,-99.99,VWS Version 10.39,2013-08-13 14:41:00,
2013-08-13 07:46:00,61.5,46.1,29.97,SW,218,0.0,0.0,57,0.00,NA,NA,-99.99,VWS Version 10.39,2013-08-13 14:46:00,
2013-08-13 07:51:00,61.5,45.7,29.97,SW,219,0.0,0.0,56,0.00,NA,NA,-99.99,VWS Version 10.39,2013-08-13 14:51:00,
2013-08-13 07:56:00,61.5,45.7,29.97,SW,219,0.0,0.0,56,0.00,NA,NA,-99.99,VWS Version 10.39,2013-08-13 14:56:00,
2013-08-13 08:01:00,61.4,45.6,29.98,SW,218,0.0,0.0,56,0.00,NA,NA,-99.99,VWS Version 10.39,2013-08-13 15:01:00,
2013-08-13 08:06:00,61.5,45.2,29.98,SW,218,0.0,0.0,55,0.00,NA,NA,-99.99,VWS Version 10.39,2013-08-13 15:06:00,
2013-08-13 08:11:00,61.5,45.2,29.98,SW,219,0.0,0.0,55,0.00,NA,NA,-99.99,VWS Version 10.39,2013-08-13 15:11:00,
2013-08-13 08:16:00,61.4,45.1,29.98,SW,219,0.0,0.0,55,0.00,NA,NA,-99.99,VWS Version 10.39,2013-08-13 15:16:00,
2013-08-13 08:21:00,61.6,45.3,29.98,SW,219,0.0,0.0,55,0.00,NA,NA,-99.99,VWS Version 10.39,2013-08-13 15:21:00,
2013-08-13 08:26:00,61.7,44.9,29.98,SW,219,0.0,0.0,54,0.00,NA,NA,-99.99,VWS Version 10.39,2013-08-13 15:26:00,
2013-08-13 08:31:00,61.7,45.4,29.98,SW,220,0.0,0.0,55,0.00,NA,NA,-99.99,VWS Version 10.39,2013-08-13 15:31:00,
2013-08-13 08:36:00,61.6,45.3,29.98,SW,232,0.0,0.0,55,0.00,NA,NA,-99.99,VWS Version 10.39,2013-08-13 15:36:00,
2013-08-13 08:41:00,61.7,45.4,29.98,SW,232,0.0,0.0,55,0.00,NA,NA,-99.99,VWS Version 10.39,2013-08-13 15:41:00,
2013-08-13 08:46:00,61.7,45.4,29.98,WSW,240,0.0,0.0,55,0.00,NA,NA,-99.99,VWS Version 10.39,2013-08-13 15:46:00,
2013-08-13 08:51:00,61.8,45.5,29.98,WSW,244,0.0,0.0,55,0.00,NA,NA,-99.99,VWS Version 10.39,2013-08-13 15:51:00,
2013-08-13 08:56:00,62.0,45.7,29.98,WSW,244,0.0,0.0,55,0.00,NA,NA,-99.99,VWS Version 10.39,2013-08-13 15:56:00,
2013-08-13 09:01:00,61.9,45.6,29.98,WSW,248,0.0,0.0,55,0.00,NA,NA,-99.99,VWS Version 10.39,2013-08-13 16:01:00,
2013-08-13 09:06:00,62.0,45.7,29.98,WSW,248,0.0,0.0,55,0.00,NA,NA,-99.99,VWS Version 10.39,2013-08-13 16:06:00,
2013-08-13 09:11:00,62.2,45.8,29.98,WSW,248,0.0,0.0,55,0.00,NA,NA,-99.99,VWS Version 10.39,2013-08-13 16:11:00,
2013-08-13 09:16:00,62.3,46.4,29.98,WSW,248,0.0,0.0,56,0.00,NA,NA,-99.99,VWS Version 10.39,2013-08-13 16:16:00,
2013-08-13 09:21:00,62.4,46.5,29.98,WSW,248,0.0,0.0,56,0.00,NA,NA,-99.99,VWS Version 10.39,2013-08-13 16:21:00,
2013-08-13 09:26:00,62.6,47.2,29.98,WSW,248,0.0,0.0,57,0.00,NA,NA,-99.99,VWS Version 10.39,2013-08-13 16:26:00,
2013-08-13 09:31:00,62.7,47.3,29.98,WSW,248,0.0,0.0,57,0.00,NA,NA,-99.99,VWS Version 10.39,2013-08-13 16:31:00,
2013-08-13 09:36:00,63.0,48.0,29.98,WSW,248,0.0,0.0,58,0.00,NA,NA,-99.99,VWS Version 10.39,2013-08-13 16:36:00,
2013-08-13 09:41:00,63.2,48.7,29.98,WSW,254,0.0,0.0,59,0.00,NA,NA,-99.99,VWS Version 10.39,2013-08-13 16:41:00,
2013-08-13 09:46:00,63.4,49.3,29.98,WSW,254,0.0,0.0,60,0.00,NA,NA,-99.99,VWS Version 10.39,2013-08-13 16:46:00,
2013-08-13 09:51:00,63.5,50.3,29.98,WSW,254,0.0,0.0,62,0.00,NA,NA,-99.99,VWS Version 10.39,2013-08-13 16:51:00,
2013-08-13 09:56:00,63.6,50.8,29.98,WSW,250,0.0,0.0,63,0.00,NA,NA,-99.99,VWS Version 10.39,2013-08-13 16:56:00,
2013-08-13 10:01:00,63.6,51.6,29.98,WSW,250,0.0,0.0,65,0.00,NA,NA,-99.99,VWS Version 10.39,2013-08-13 17:01:00,
2013-08-13 10:06:00,63.6,52.0,29.98,WSW,244,0.0,0.0,66,0.00,NA,NA,-99.99,VWS Version 10.39,2013-08-13 17:06:00,
2013-08-13 10:16:00,64.0,52.8,29.98,WSW,257,0.0,0.0,67,0.00,NA,NA,-99.99,VWS Version 10.39,2013-08-13 17:16:00,
2013-08-13 10:21:00,64.5,53.7,29.98,WNW,295,0.0,0.0,68,0.00,NA,NA,-99.99,VWS Version 10.39,2013-08-13 17:21:00,
2013-08-13 10:26:00,64.8,54.4,29.98,WNW,296,0.0,0.0,69,0.00,NA,NA,-99.99,VWS Version 10.39,2013-08-13 17:26:00,
2013-08-13 10:31:00,65.1,55.5,29.98,West,275,0.0,0.0,71,0.00,NA,NA,-99.99,VWS Version 10.39,2013-08-13 17:31:00,
2013-08-13 10:36:00,65.3,56.4,29.98,West,280,0.0,0.0,73,0.00,NA,NA,-99.99,VWS Version 10.39,2013-08-13 17:36:00,
2013-08-13 10:41:00,65.2,56.7,29.98,NNW,331,0.0,0.0,74,0.00,NA,NA,-99.99,VWS Version 10.39,2013-08-13 17:41:00,
2013-08-13 10:46:00,65.6,57.1,29.98,WSW,242,0.0,0.0,74,0.00,NA,NA,-99.99,VWS Version 10.39,2013-08-13 17:46:00,
2013-08-13 10:51:00,65.6,57.8,29.97,West,273,0.0,0.0,76,0.00,NA,NA,-99.99,VWS Version 10.39,2013-08-13 17:51:00,
2013-08-13 10:56:00,65.4,57.7,29.97,West,270,0.0,0.0,76,0.00,NA,NA,-99.99,VWS Version 10.39,2013-08-13 17:56:00,
2013-08-13 11:01:00,65.8,58.0,29.97,West,270,0.0,0.0,76,0.00,NA,NA,-99.99,VWS Version 10.39,2013-08-13 18:01:00,
2013-08-13 11:11:00,65.6,57.8,29.97,WNW,288,0.0,0.0,76,0.00,NA,NA,-99.99,VWS Version 10.39,2013-08-13 18:11:00,
2013-08-13 11:16:00,65.5,58.1,29.97,WSW,254,0.0,0.0,77,0.00,NA,NA,-99.99,VWS Version 10.39,2013-08-13 18:16:00,
2013-08-13 11:21:00,65.2,57.8,29.97,WSW,253,0.0,0.0,77,0.00,NA,NA,-99.99,VWS Version 10.39,2013-08-13 18:21:00,
2013-08-13 11:26:00,65.4,57.7,29.96,West,264,0.0,0.0,76,0.00,NA,NA,-99.99,VWS Version 10.39,2013-08-13 18:26:00,
2013-08-13 11:31:00,65.6,58.2,29.96,WSW,242,0.0,0.0,77,0.00,NA,NA,-99.99,VWS Version 10.39,2013-08-13 18:31:00,
2013-08-13 11:36:00,65.8,58.4,29.96,WNW,286,0.0,0.0,77,0.00,NA,NA,-99.99,VWS Version 10.39,2013-08-13 18:36:00,
2013-08-13 11:41:00,65.7,58.3,29.96,West,265,0.0,0.0,77,0.00,NA,NA,-99.99,VWS Version 10.39,2013-08-13 18:41:00,
2013-08-13 11:46:00,65.5,58.5,29.96,West,264,0.0,0.0,78,0.00,NA,NA,-99.99,VWS Version 10.39,2013-08-13 18:46:00,
2013-08-13 11:51:00,65.7,58.7,29.96,West,279,0.0,0.0,78,0.00,NA,NA,-99.99,VWS Version 10.39,2013-08-13 18:51:00,
2013-08-13 11:56:00,65.9,58.9,29.96,WSW,246,0.0,0.0,78,0.00,NA,NA,-99.99,VWS Version 10.39,2013-08-13 18:56:00,
2013-08-13 12:01:00,65.6,58.6,29.96,West,260,0.0,0.0,78,0.00,NA,NA,-99.99,VWS Version 10.39,2013-08-13 19:01:00,
2013-08-13 12:06:00,65.6,58.6,29.96,West,261,0.0,0.0,78,0.00,NA,NA,-99.99,VWS Version 10.39,2013-08-13 19:06:00,
2013-08-13 12:11:00,65.9,58.9,29.95,SW,233,0.0,0.0,78,0.00,NA,NA,-99.99,VWS Version 10.39,2013-08-13 19:11:00,
2013-08-13 12:16:00,65.9,59.2,29.95,WSW,251,0.0,0.0,79,0.00,NA,NA,-99.99,VWS Version 10.39,2013-08-13 19:16:00,
2013-08-13 12:21:00,66.5,59.8,29.95,West,281,0.0,0.0,79,0.00,NA,NA,-99.99,VWS Version 10.39,2013-08-13 19:21:00,
2013-08-13 12:26:00,66.3,59.6,29.95,West,280,0.0,0.0,79,0.00,NA,NA,-99.99,VWS Version 10.39,2013-08-13 19:26:00,
2013-08-13 12:31:00,66.3,60.0,29.94,West,269,0.0,0.0,80,0.00,NA,NA,-99.99,VWS Version 10.39,2013-08-13 19:31:00,
2013-08-13 12:36:00,65.9,59.6,29.94,West,281,0.0,0.0,80,0.00,NA,NA,-99.99,VWS Version 10.39,2013-08-13 19:36:00,
2013-08-13 12:41:00,66.5,59.8,29.94,West,261,0.0,0.0,79,0.00,NA,NA,-99.99,VWS Version 10.39,2013-08-13 19:41:00,
2013-08-13 12:46:00,66.3,60.0,29.94,West,272,0.0,0.0,80,0.00,NA,NA,-99.99,VWS Version 10.39,2013-08-13 19:46:00,
2013-08-13 12:51:00,66.0,59.7,29.94,WSW,253,0.0,0.0,80,0.00,NA,NA,-99.99,VWS Version 10.39,2013-08-13 19:51:00,
2013-08-13 12:56:00,66.1,59.8,29.94,West,261,0.0,0.0,80,0.00,NA,NA,-99.99,VWS Version 10.39,2013-08-13 19:56:00,
2013-08-13 13:01:00,66.1,59.8,29.94,West,271,0.0,0.0,80,0.00,NA,NA,-99.99,VWS Version 10.39,2013-08-13 20:01:00,
2013-08-13 13:06:00,66.1,59.8,29.94,WSW,249,0.0,0.0,80,0.00,NA,NA,-99.99,VWS Version 10.39,2013-08-13 20:06:00,
2013-08-13 13:11:00,66.2,59.9,29.94,WNW,286,0.0,0.0,80,0.00,NA,NA,-99.99,VWS Version 10.39,2013-08-13 20:11:00,
2013-08-13 13:16:00,66.9,60.5,29.94,West,269,0.0,0.0,80,0.00,NA,NA,-99.99,VWS Version 10.39,2013-08-13 20:16:00,
2013-08-13 13:21:00,66.3,60.3,29.93,West,264,0.0,0.0,81,0.00,NA,NA,-99.99,VWS Version 10.39,2013-08-13 20:21:00,
2013-08-13 13:26:00,66.4,60.4,29.93,WNW,291,0.0,0.0,81,0.00,NA,NA,-99.99,VWS Version 10.39,2013-08-13 20:26:00,
2013-08-13 13:31:00,66.7,60.7,29.93,WNW,286,0.0,0.0,81,0.00,NA,NA,-99.99,VWS Version 10.39,2013-08-13 20:31:00,
2013-08-13 13:36:00,66.9,60.9,29.93,WSW,252,0.0,0.0,81,0.00,NA,NA,-99.99,VWS Version 10.39,2013-08-13 20:36:00,
2013-08-13 13:41:00,67.0,61.0,29.92,WSW,244,0.0,0.0,81,0.00,NA,NA,-99.99,VWS Version 10.39,2013-08-13 20:41:00,
2013-08-13 13:46:00,66.9,60.9,29.93,WNW,291,0.0,0.0,81,0.00,NA,NA,-99.99,VWS Version 10.39,2013-08-13 20:46:00,
2013-08-13 13:51:00,66.5,60.8,29.92,West,270,0.0,0.0,82,0.00,NA,NA,-99.99,VWS Version 10.39,2013-08-13 20:51:00,
2013-08-13 13:56:00,66.3,60.7,29.93,West,269,0.0,0.0,82,0.00,NA,NA,-99.99,VWS Version 10.39,2013-08-13 20:56:00,
2013-08-13 14:01:00,66.5,60.8,29.92,West,277,0.0,0.0,82,0.00,NA,NA,-99.99,VWS Version 10.39,2013-08-13 21:01:00,
2013-08-13 14:06:00,66.1,60.5,29.93,West,268,0.0,0.0,82,0.00,NA,NA,-99.99,VWS Version 10.39,2013-08-13 21:06:00,
2013-08-13 14:11:00,65.7,60.1,29.92,WNW,284,0.0,0.0,82,0.00,NA,NA,-99.99,VWS Version 10.39,2013-08-13 21:11:00,
2013-08-13 14:16:00,66.1,60.1,29.92,WSW,250,0.0,0.0,81,0.00,NA,NA,-99.99,VWS Version 10.39,2013-08-13 21:16:00,
2013-08-13 14:21:00,66.0,60.0,29.92,West,270,0.0,0.0,81,0.00,NA,NA,-99.99,VWS Version 10.39,2013-08-13 21:21:00,
2013-08-13 14:26:00,65.7,60.1,29.92,WSW,245,0.0,0.0,82,0.00,NA,NA,-99.99,VWS Version 10.39,2013-08-13 21:26:00,
2013-08-13 14:31:00,65.8,60.2,29.92,WNW,288,0.0,0.0,82,0.00,NA,NA,-99.99,VWS Version 10.39,2013-08-13 21:31:00,
2013-08-13 14:36:00,66.0,60.3,29.91,WNW,284,0.0,0.0,82,0.00,NA,NA,-99.99,VWS Version 10.39,2013-08-13 21:36:00,
2013-08-13 14:41:00,66.8,61.1,29.91,West,270,0.0,0.0,82,0.00,NA,NA,-99.99,VWS Version 10.39,2013-08-13 21:41:00,
2013-08-13 14:46:00,66.7,61.0,29.91,WSW,253,0.0,0.0,82,0.00,NA,NA,-99.99,VWS Version 10.39,2013-08-13 21:46:00,
2013-08-13 14:51:00,66.5,61.2,29.92,WSW,257,0.0,0.0,83,0.00,NA,NA,-99.99,VWS Version 10.39,2013-08-13 21:51:00,
2013-08-13 14:56:00,66.5,61.2,29.91,WNW,292,0.0,0.0,83,0.00,NA,NA,-99.99,VWS Version 10.39,2013-08-13 21:56:00,
2013-08-13 15:01:00,66.4,61.1,29.91,West,266,0.0,0.0,83,0.00,NA,NA,-99.99,VWS Version 10.39,2013-08-13 22:01:00,
2013-08-13 15:06:00,66.0,60.7,29.91,WSW,243,0.0,0.0,83,0.00,NA,NA,-99.99,VWS Version 10.39,2013-08-13 22:06:00,
2013-08-13 15:11:00,65.9,60.6,29.91,West,264,0.0,0.0,83,0.00,NA,NA,-99.99,VWS Version 10.39,2013-08-13 22:11:00,
2013-08-13 15:16:00,65.8,60.5,29.91,West,261,0.0,0.0,83,0.00,NA,NA,-99.99,VWS Version 10.39,2013-08-13 22:16:00,
2013-08-13 15:21:00,65.5,60.2,29.90,WNW,292,0.0,0.0,83,0.00,NA,NA,-99.99,VWS Version 10.39,2013-08-13 22:21:00,
2013-08-13 15:26:00,65.9,60.6,29.90,West,261,0.0,0.0,83,0.00,NA,NA,-99.99,VWS Version 10.39,2013-08-13 22:26:00,
2013-08-13 15:31:00,65.3,60.0,29.90,WSW,257,0.0,0.0,83,0.00,NA,NA,-99.99,VWS Version 10.39,2013-08-13 22:31:00,
2013-08-13 15:36:00,65.4,60.1,29.90,WSW,253,0.0,0.0,83,0.00,NA,NA,-99.99,VWS Version 10.39,2013-08-13 22:36:00,
2013-08-13 15:41:00,65.2,59.9,29.90,West,269,0.0,0.0,83,0.00,NA,NA,-99.99,VWS Version 10.39,2013-08-13 22:41:00,
2013-08-13 15:46:00,65.2,59.9,29.90,West,259,0.0,0.0,83,0.00,NA,NA,-99.99,VWS Version 10.39,2013-08-13 22:46:00,
2013-08-13 15:51:00,65.3,60.0,29.90,West,260,0.0,0.0,83,0.00,NA,NA,-99.99,VWS Version 10.39,2013-08-13 22:51:00,
2013-08-13 15:56:00,65.2,59.9,29.90,West,265,0.0,0.0,83,0.00,NA,NA,-99.99,VWS Version 10.39,2013-08-13 22:56:00,
2013-08-13 16:01:00,64.9,59.6,29.89,West,263,0.0,0.0,83,0.00,NA,NA,-99.99,VWS Version 10.39,2013-08-13 23:01:00,
2013-08-13 16:06:00,64.9,59.6,29.89,WNW,295,0.0,0.0,83,0.00,NA,NA,-99.99,VWS Version 10.39,2013-08-13 23:06:00,
2013-08-13 16:11:00,64.7,59.4,29.89,West,281,0.0,0.0,83,0.00,NA,NA,-99.99,VWS Version 10.39,2013-08-13 23:11:00,
2013-08-13 16:16:00,64.7,59.4,29.90,WSW,243,0.0,0.0,83,0.00,NA,NA,-99.99,VWS Version 10.39,2013-08-13 23:16:00,
2013-08-13 16:21:00,64.7,59.1,29.89,West,273,0.0,0.0,82,0.00,NA,NA,-99.99,VWS Version 10.39,2013-08-13 23:21:00,
2013-08-13 16:26:00,64.5,58.9,29.90,West,268,0.0,0.0,82,0.00,NA,NA,-99.99,VWS Version 10.39,2013-08-13 23:26:00,
2013-08-13 16:31:00,64.2,58.6,29.90,West,263,0.0,0.0,82,0.00,NA,NA,-99.99,VWS Version 10.39,2013-08-13 23:31:00,
2013-08-13 16:36:00,64.2,58.6,29.90,WSW,249,0.0,0.0,82,0.00,NA,NA,-99.99,VWS Version 10.39,2013-08-13 23:36:00,
2013-08-13 16:41:00,64.3,58.7,29.90,WSW,254,0.0,0.0,82,0.00,NA,NA,-99.99,VWS Version 10.39,2013-08-13 23:41:00,
2013-08-13 16:46:00,64.0,58.4,29.90,WSW,244,0.0,0.0,82,0.00,NA,NA,-99.99,VWS Version 10.39,2013-08-13 23:46:00,
2013-08-13 16:51:00,63.8,58.2,29.90,West,265,0.0,0.0,82,0.00,NA,NA,-99.99,VWS Version 10.39,2013-08-13 23:51:00,
2013-08-13 16:56:00,63.8,57.9,29.90,West,267,0.0,0.0,81,0.00,NA,NA,-99.99,VWS Version 10.39,2013-08-13 23:56:00,
2013-08-13 17:01:00,63.8,57.9,29.90,SW,215,0.0,0.0,81,0.00,NA,NA,-99.99,VWS Version 10.39,2013-08-14 00:01:00,
2013-08-13 17:06:00,63.7,57.8,29.90,SW,217,0.0,0.0,81,0.00,NA,NA,-99.99,VWS Version 10.39,2013-08-14 00:06:00,
2013-08-13 17:11:00,63.5,57.6,29.90,West,269,0.0,0.0,81,0.00,NA,NA,-99.99,VWS Version 10.39,2013-08-14 00:11:00,
2013-08-13 17:16:00,63.5,57.6,29.90,West,269,0.0,0.0,81,0.00,NA,NA,-99.99,VWS Version 10.39,2013-08-14 00:16:00,
2013-08-13 17:21:00,63.7,57.8,29.90,WSW,238,0.0,0.0,81,0.00,NA,NA,-99.99,VWS Version 10.39,2013-08-14 00:21:00,
2013-08-13 17:26:00,64.0,58.1,29.90,West,272,0.0,0.0,81,0.00,NA,NA,-99.99,VWS Version 10.39,2013-08-14 00:26:00,
2013-08-13 17:31:00,64.0,58.1,29.90,West,279,0.0,0.0,81,0.00,NA,NA,-99.99,VWS Version 10.39,2013-08-14 00:31:00,
2013-08-13 17:36:00,63.9,58.0,29.90,WSW,241,0.0,0.0,81,0.00,NA,NA,-99.99,VWS Version 10.39,2013-08-14 00:36:00,
2013-08-13 17:41:00,63.6,57.7,29.90,WSW,257,0.0,0.0,81,0.00,NA,NA,-99.99,VWS Version 10.39,2013-08-14 00:41:00,
2013-08-13 17:46:00,63.6,57.7,29.90,WSW,257,0.0,0.0,81,0.00,NA,NA,-99.99,VWS Version 10.39,2013-08-14 00:46:00,
2013-08-13 17:51:00,63.2,57.6,29.90,WSW,237,0.0,0.0,82,0.00,NA,NA,-99.99,VWS Version 10.39,2013-08-14 00:51:00,
2013-08-13 17:56:00,63.3,57.4,29.90,SW,236,0.0,0.0,81,0.00,NA,NA,-99.99,VWS Version 10.39,2013-08-14 00:56:00,
2013-08-13 18:01:00,63.3,57.4,29.90,WSW,248,0.0,0.0,81,0.00,NA,NA,-99.99,VWS Version 10.39,2013-08-14 01:01:00,
2013-08-13 18:11:00,62.9,57.0,29.90,SW,227,0.0,0.0,81,0.00,NA,NA,-99.99,VWS Version 10.39,2013-08-14 01:11:00,
2013-08-13 18:16:00,62.7,56.8,29.89,SW,232,0.0,0.0,81,0.00,NA,NA,-99.99,VWS Version 10.39,2013-08-14 01:16:00,
2013-08-13 18:21:00,62.7,56.5,29.90,SW,219,0.0,0.0,80,0.00,NA,NA,-99.99,VWS Version 10.39,2013-08-14 01:21:00,
2013-08-13 18:26:00,62.9,56.6,29.90,WSW,242,0.0,0.0,80,0.00,NA,NA,-99.99,VWS Version 10.39,2013-08-14 01:26:00,
2013-08-13 18:31:00,62.7,56.5,29.90,WSW,242,0.0,0.0,80,0.00,NA,NA,-99.99,VWS Version 10.39,2013-08-14 01:31:00,
2013-08-13 18:36:00,62.7,56.5,29.90,WSW,240,0.0,0.0,80,0.00,NA,NA,-99.99,VWS Version 10.39,2013-08-14 01:36:00,
2013-08-13 18:41:00,62.7,56.1,29.90,WSW,240,0.0,0.0,79,0.00,NA,NA,-99.99,VWS Version 10.39,2013-08-14 01:41:00,
2013-08-13 18:46:00,62.5,55.9,29.90,WSW,248,0.0,0.0,79,0.00,NA,NA,-99.99,VWS Version 10.39,2013-08-14 01:46:00,
2013-08-13 18:51:00,62.4,55.8,29.90,WSW,247,0.0,0.0,79,0.00,NA,NA,-99.99,VWS Version 10.39,2013-08-14 01:51:00,
2013-08-13 18:56:00,62.4,55.8,29.90,SW,215,0.0,0.0,79,0.00,NA,NA,-99.99,VWS Version 10.39,2013-08-14 01:56:00,
2013-08-13 19:01:00,62.4,55.5,29.90,SW,223,0.0,0.0,78,0.00,NA,NA,-99.99,VWS Version 10.39,2013-08-14 02:01:00,
2013-08-13 19:06:00,62.3,55.4,29.90,WSW,258,0.0,0.0,78,0.00,NA,NA,-99.99,VWS Version 10.39,2013-08-14 02:06:00,
2013-08-13 19:11:00,62.3,55.4,29.90,WSW,258,0.0,0.0,78,0.00,NA,NA,-99.99,VWS Version 10.39,2013-08-14 02:11:00,
2013-08-13 19:16:00,62.4,55.5,29.90,South,176,0.0,0.0,78,0.00,NA,NA,-99.99,VWS Version 10.39,2013-08-14 02:16:00,
2013-08-13 19:21:00,62.4,55.1,29.90,South,191,0.0,0.0,77,0.00,NA,NA,-99.99,VWS Version 10.39,2013-08-14 02:21:00,
2013-08-13 19:26:00,62.5,55.2,29.90,South,191,0.0,0.0,77,0.00,NA,NA,-99.99,VWS Version 10.39,2013-08-14 02:26:00,
2013-08-13 19:31:00,62.3,55.0,29.90,South,190,0.0,0.0,77,0.00,NA,NA,-99.99,VWS Version 10.39,2013-08-14 02:31:00,
2013-08-13 19:36:00,62.3,55.0,29.91,SSE,155,0.0,0.0,77,0.00,NA,NA,-99.99,VWS Version 10.39,2013-08-14 02:36:00,
2013-08-13 19:41:00,62.4,54.8,29.91,SSE,159,0.0,0.0,76,0.00,NA,NA,-99.99,VWS Version 10.39,2013-08-14 02:41:00,
2013-08-13 19:46:00,62.5,54.8,29.91,SSW,198,0.0,0.0,76,0.00,NA,NA,-99.99,VWS Version 10.39,2013-08-14 02:46:00,
2013-08-13 19:51:00,62.5,54.8,29.91,SSW,198,0.0,0.0,76,0.00,NA,NA,-99.99,VWS Version 10.39,2013-08-14 02:51:00,
2013-08-13 19:56:00,62.5,54.8,29.91,SSW,201,0.0,0.0,76,0.00,NA,NA,-99.99,VWS Version 10.39,2013-08-14 02:56:00,
2013-08-13 20:01:00,62.5,54.5,29.91,SSW,200,0.0,0.0,75,0.00,NA,NA,-99.99,VWS Version 10.39,2013-08-14 03:01:00,
2013-08-13 20:06:00,62.5,54.5,29.91,SSW,201,0.0,0.0,75,0.00,NA,NA,-99.99,VWS Version 10.39,2013-08-14 03:06:00,
2013-08-13 20:11:00,62.4,54.4,29.91,SSW,202,0.0,0.0,75,0.00,NA,NA,-99.99,VWS Version 10.39,2013-08-14 03:11:00,
2013-08-13 20:16:00,62.3,54.3,29.91,SSW,202,0.0,0.0,75,0.00,NA,NA,-99.99,VWS Version 10.39,2013-08-14 03:16:00,
2013-08-13 20:21:00,62.3,53.9,29.91,SSW,202,0.0,0.0,74,0.00,NA,NA,-99.99,VWS Version 10.39,2013-08-14 03:21:00,
2013-08-13 20:26:00,62.3,53.9,29.91,SSW,202,0.0,0.0,74,0.00,NA,NA,-99.99,VWS Version 10.39,2013-08-14 03:26:00,
2013-08-13 20:31:00,62.3,53.9,29.92,SSW,202,0.0,0.0,74,0.00,NA,NA,-99.99,VWS Version 10.39,2013-08-14 03:31:00,
2013-08-13 20:36:00,62.4,54.0,29.92,SSW,202,0.0,0.0,74,0.00,NA,NA,-99.99,VWS Version 10.39,2013-08-14 03:36:00,
2013-08-13 20:41:00,62.4,53.6,29.92,SSW,202,0.0,0.0,73,0.00,NA,NA,-99.99,VWS Version 10.39,2013-08-14 03:41:00,
2013-08-13 20:46:00,62.4,53.6,29.92,SSW,202,0.0,0.0,73,0.00,NA,NA,-99.99,VWS Version 10.39,2013-08-14 03:46:00,
2013-08-13 20:51:00,62.4,53.6,29.92,SSW,202,0.0,0.0,73,0.00,NA,NA,-99.99,VWS Version 10.39,2013-08-14 03:51:00,
2013-08-13 20:56:00,62.5,53.4,29.92,SSW,202,0.0,0.0,72,0.00,NA,NA,-99.99,VWS Version 10.39,2013-08-14 03:56:00,
2013-08-13 21:01:00,62.5,53.4,29.92,SSW,202,0.0,0.0,72,0.00,NA,NA,-99.99,VWS Version 10.39,2013-08-14 04:01:00,
2013-08-13 21:06:00,62.5,53.4,29.93,SSW,202,0.0,0.0,72,0.00,NA,NA,-99.99,VWS Version 10.39,2013-08-14 04:06:00,
2013-08-13 21:11:00,62.6,53.5,29.93,SSW,202,0.0,0.0,72,0.00,NA,NA,-99.99,VWS Version 10.39,2013-08-14 04:11:00,
2013-08-13 21:16:00,62.6,53.5,29.93,SSW,202,0.0,0.0,72,0.00,NA,NA,-99.99,VWS Version 10.39,2013-08-14 04:16:00,
2013-08-13 21:21:00,62.6,53.5,29.93,SSW,202,0.0,0.0,72,0.00,NA,NA,-99.99,VWS Version 10.39,2013-08-14 04:21:00,
2013-08-13 21:26:00,62.7,53.2,29.93,SSW,200,0.0,0.0,71,0.00,NA,NA,-99.99,VWS Version 10.39,2013-08-14 04:26:00,
2013-08-13 21:31:00,62.7,53.5,29.93,SSE,167,0.0,0.0,72,0.00,NA,NA,-99.99,VWS Version 10.39,2013-08-14 04:31:00,
2013-08-13 21:36:00,62.7,53.5,29.93,South,191,0.0,0.0,72,0.00,NA,NA,-99.99,VWS Version 10.39,2013-08-14 04:36:00,
2013-08-13 21:41:00,62.6,53.5,29.93,South,191,0.0,0.0,72,0.00,NA,NA,-99.99,VWS Version 10.39,2013-08-14 04:41:00,
2013-08-13 21:46:00,62.7,53.5,29.93,South,191,0.0,0.0,72,0.00,NA,NA,-99.99,VWS Version 10.39,2013-08-14 04:46:00,
2013-08-13 21:51:00,62.7,53.5,29.93,South,180,0.0,0.0,72,0.00,NA,NA,-99.99,VWS Version 10.39,2013-08-14 04:51:00,
2013-08-13 21:56:00,62.6,53.5,29.93,SSE,153,0.0,0.0,72,0.00,NA,NA,-99.99,VWS Version 10.39,2013-08-14 04:56:00,
2013-08-13 22:01:00,62.6,53.5,29.93,SSE,153,0.0,0.0,72,0.00,NA,NA,-99.99,VWS Version 10.39,2013-08-14 05:01:00,
2013-08-13 22:06:00,62.5,53.4,29.93,SSE,153,0.0,0.0,72,0.00,NA,NA,-99.99,VWS Version 10.39,2013-08-14 05:06:00,
2013-08-13 22:11:00,62.6,53.1,29.93,SSE,154,0.0,0.0,71,0.00,NA,NA,-99.99,VWS Version 10.39,2013-08-14 05:11:00,
2013-08-13 22:16:00,62.6,53.1,29.93,SSE,153,0.0,0.0,71,0.00,NA,NA,-99.99,VWS Version 10.39,2013-08-14 05:16:00,
2013-08-13 22:21:00,62.5,53.0,29.93,South,178,0.0,0.0,71,0.00,NA,NA,-99.99,VWS Version 10.39,2013-08-14 05:21:00,
2013-08-13 22:26:00,62.5,53.0,29.93,South,178,0.0,0.0,71,0.00,NA,NA,-99.99,VWS Version 10.39,2013-08-14 05:26:00,
2013-08-13 22:31:00,62.4,52.9,29.93,South,179,0.0,0.0,71,0.00,NA,NA,-99.99,VWS Version 10.39,2013-08-14 05:31:00,
2013-08-13 22:36:00,62.3,52.8,29.93,South,177,0.0,0.0,71,0.00,NA,NA,-99.99,VWS Version 10.39,2013-08-14 05:36:00,
2013-08-13 22:41:00,62.2,52.7,29.93,South,176,0.0,0.0,71,0.00,NA,NA,-99.99,VWS Version 10.39,2013-08-14 05:41:00,
2013-08-13 22:46:00,62.2,52.7,29.93,South,177,0.0,0.0,71,0.00,NA,NA,-99.99,VWS Version 10.39,2013-08-14 05:46:00,
2013-08-13 22:51:00,62.2,52.3,29.93,South,177,0.0,0.0,70,0.00,NA,NA,-99.99,VWS Version 10.39,2013-08-14 05:51:00,
2013-08-13 22:56:00,62.3,52.4,29.93,South,177,0.0,0.0,70,0.00,NA,NA,-99.99,VWS Version 10.39,2013-08-14 05:56:00,
2013-08-13 23:01:00,62.2,52.3,29.93,South,177,0.0,0.0,70,0.00,NA,NA,-99.99,VWS Version 10.39,2013-08-14 06:01:00,
2013-08-13 23:06:00,62.2,52.3,29.93,South,177,0.0,0.0,70,0.00,NA,NA,-99.99,VWS Version 10.39,2013-08-14 06:06:00,
2013-08-13 23:11:00,62.2,51.9,29.93,South,177,0.0,0.0,69,0.00,NA,NA,-99.99,VWS Version 10.39,2013-08-14 06:11:00,
2013-08-13 23:16:00,62.2,51.9,29.93,South,176,0.0,0.0,69,0.00,NA,NA,-99.99,VWS Version 10.39,2013-08-14 06:16:00,
2013-08-13 23:21:00,62.2,51.9,29.93,South,177,0.0,0.0,69,0.00,NA,NA,-99.99,VWS Version 10.39,2013-08-14 06:21:00,
2013-08-13 23:26:00,62.2,51.9,29.93,South,177,0.0,0.0,69,0.00,NA,NA,-99.99,VWS Version 10.39,2013-08-14 06:26:00,
2013-08-13 23:31:00,62.1,51.8,29.93,South,177,0.0,0.0,69,0.00,NA,NA,-99.99,VWS Version 10.39,2013-08-14 06:31:00,
2013-08-13 23:36:00,62.0,51.3,29.93,South,176,0.0,0.0,68,0.00,NA,NA,-99.99,VWS Version 10.39,2013-08-14 06:36:00,
2013-08-13 23:41:00,62.0,51.3,29.93,South,177,0.0,0.0,68,0.00,NA,NA,-99.99,VWS Version 10.39,2013-08-14 06:41:00,
2013-08-13 23:46:00,62.0,51.3,29.93,South,177,0.0,0.0,68,0.00,NA,NA,-99.99,VWS Version 10.39,2013-08-14 06:46:00,
2013-08-13 23:51:00,62.0,51.3,29.93,South,176,0.0,0.0,68,0.00,NA,NA,-99.99,VWS Version 10.39,2013-08-14 06:51:00,
2013-08-13 23:56:00,61.9,50.8,29.93,South,176,0.0,0.0,67,0.00,NA,NA,-99.99,VWS Version 10.39,2013-08-14 06:56:00,